KNORR BREMSE LIBEREC
KNORR BREMSE LIBEREC's Shipments Over Time
Supply Ratings
Shipment Reliability and Frequency Volume of Goods
Avg. Shipments per Month: 2.25 Average TEU per month: 3.92
Active Months: 5 Average TEU per Shipment: 1.74
Shipment Frequency Std. Dev.: 3.25
Shipments By Companies
Company Name Shipments
BENDIX COMMERICAL VEHICLE SYSTEMS 16 shipments
BENDIX COMMERCIAL VEHICLE SYSTEMS 10 shipments
BENDIX COMMERCIAL VEHICLE SYSTEMS C 1 shipments
Shipments By HS Code
HS Code Shipments
841590.0 Air conditioning machines; comprising a motor driven fan and elements for changing the temperature and humidity, including those machines in which the humidity cannot be separately regulated 26 shipments
851490.0 Industrial or laboratory electric furnaces and ovens (including those functioning by induction or dielectric loss); other industrial or laboratory equipment for the heat treatment of materials by induction or dielectric loss 1 shipments
to show market analysis.
Similar Suppliers
to see more.
Latest Shipments
Arrival Date Bill Of Lading Consignee Weight HS Code Description
2026-03-03 GOLESNTG26010811 BENDIX COMMERICAL VEHICLE SYSTEMS 19519.0 kg 841590.0 AUTOMOTIVE PARTS
2026-03-03 GOLESNTG26008825 BENDIX COMMERICAL VEHICLE SYSTEMS 19519.0 kg 841590.0 AUTOMOTIVE PARTS
2026-02-25 GOLESNTG26006760 BENDIX COMMERICAL VEHICLE SYSTEMS 19493.0 kg 841590.0 AUTOMOTIVE PARTS AUTOMOTIVE PARTS
2026-02-25 GOLESNTG26006763 BENDIX COMMERCIAL VEHICLE SYSTEMS 12673.0 kg 841590.0 AUTOMOTIVE PARTS
2026-02-25 GOLESNTG26008824 BENDIX COMMERCIAL VEHICLE SYSTEMS 12264.0 kg 841590.0 AUTOMOTIVE PARTS
2026-02-17 GOLESNTG26005492 BENDIX COMMERICAL VEHICLE SYSTEMS 14308.0 kg 841590.0 AUTOMOTIVE PARTS
2026-02-11 GOLESNTG26004578 BENDIX COMMERCIAL VEHICLE SYSTEMS 15943.0 kg 841590.0 AUTOMOTIVE PARTS
2026-02-11 GOLESNTG26002680 BENDIX COMMERCIAL VEHICLE SYSTEMS 12673.0 kg 841590.0 AUTOMOTIVE PARTS
2026-02-11 GOLESNTG26002679 BENDIX COMMERICAL VEHICLE SYSTEMS 19493.0 kg 841590.0 AUTOMOTIVE PARTS
2026-02-06 GOLESNTG25092412 BENDIX COMMERCIAL VEHICLE SYSTEMS 12673.0 kg 841590.0 AUTOMOTIVE PARTS
2026-01-27 GOLESNTG25092406 BENDIX COMMERICAL VEHICLE SYSTEMS 19493.0 kg 841590.0 AUTOMOTIVE PARTS
2026-01-06 GOLESNTG25092405 BENDIX COMMERICAL VEHICLE SYSTEMS 17170.0 kg 841590.0 AUTOMOTIVE PARTS
2026-01-03 GOLESNTG25092404 BENDIX COMMERICAL VEHICLE SYSTEMS 19629.0 kg 841590.0 AUTOMOTIVE PARTS
2026-01-03 GOLESNTG25092410 BENDIX COMMERCIAL VEHICLE SYSTEMS 6132.0 kg 841590.0 AUTOMOTIVE PARTS AUTOMOTIVE PARTS
2026-01-03 GOLESNTG25095637 BENDIX COMMERCIAL VEHICLE SYSTEMS 17987.0 kg 841590.0 AUTOMOTIVE PARTS
2026-01-03 GOLESNTG25095634 BENDIX COMMERICAL VEHICLE SYSTEMS 19635.0 kg 841590.0 AUTOMOTIVE PARTS
2025-12-23 GOLESNTG25092409 BENDIX COMMERCIAL VEHICLE SYSTEMS 7767.0 kg 841590.0 AUTOMOTIVE PARTS
2025-12-23 GOLESNTG25092403 BENDIX COMMERICAL VEHICLE SYSTEMS 19633.0 kg 841590.0 AUTOMOTIVE PARTS
2025-12-17 GOLESNTG25092402 BENDIX COMMERICAL VEHICLE SYSTEMS 19633.0 kg 841590.0 AUTOMOTIVE PARTS
2025-12-17 GOLESNTG25092408 BENDIX COMMERCIAL VEHICLE SYSTEMS 5314.0 kg 841590.0 AUTOMOTIVE PARTS
2025-12-09 GOLESNTG25091336 BENDIX COMMERICAL VEHICLE SYSTEMS 14717.0 kg 841590.0 AUTOMOTIVE PARTS
2025-12-09 GOLESNTG25091340 BENDIX COMMERCIAL VEHICLE SYSTEMS 3270.0 kg 841590.0 AUTOMOTIVE PARTS
2025-12-01 GOLESNTG25088853 BENDIX COMMERICAL VEHICLE SYSTEMS 15126.0 kg 841590.0 AUTOMOTIVE PARTS
2025-12-01 GOLESNTG25089015 BENDIX COMMERCIAL VEHICLE SYSTEMS C 4497.0 kg 841590.0 AUTOMOTIVE PARTS
2025-11-24 GOLESNTG25086955 BENDIX COMMERICAL VEHICLE SYSTEMS 15126.0 kg 841590.0 AUTOMOTIVE PARTS
2025-11-17 GOLESNTG25085200 BENDIX COMMERICAL VEHICLE SYSTEMS 8994.0 kg 841590.0 AUTOMOTIVE PARTS
2025-11-11 GOLESNTG25082773 BENDIX COMMERICAL VEHICLE SYSTEMS 19622.0 kg 851490.0 AUTOMTOIVE PARTS
Contact information Request
to request contact information.
Other address